Location: Tel Aviv
(32.0670°N, 34.7670°E)
Time: 21:22:30
(UTC+03:00)

YUBILEINY - Visible Passes

Search period start: 16 June 2025 00:00
Search period end: 26 June 2025 00:00
Orbit: 1477 x 1509 km, 82.5° (Epoch: 16 June)

Date Brightness Start Highest point End Pass type
(mag) Time Alt. Az. Time Alt. Az. Time Alt. Az.
16 Jun ? 20:29:28 10° SE 20:35:21 21° E 20:41:14 10° NE visible
16 Jun ? 22:24:59 21° SSW 22:31:15 67° W 22:39:54 10° N visible
17 Jun ? 21:34:56 18° S 21:41:40 67° E 21:50:15 10° NNE visible
17 Jun ? 23:32:52 10° WSW 23:39:02 21° WNW 23:45:14 10° NNW visible
18 Jun ? 20:44:52 10° SSE 20:52:23 34° E 20:59:54 10° NNE visible
18 Jun ? 22:40:48 10° SSW 22:48:51 42° WNW 22:56:59 10° N visible
19 Jun ? 21:50:25 10° S 21:59:03 80° W 22:07:48 10° N visible
19 Jun ? 23:54:18 10° W 23:57:08 12° WNW 23:59:59 10° NW visible
20 Jun ? 21:01:12 10° SSE 21:09:34 55° E 21:17:57 10° NNE visible
20 Jun ? 22:59:44 10° SW 23:06:39 26° WNW 23:13:38 10° NNW visible
21 Jun ? 20:13:26 10° SE 20:20:22 28° E 20:27:18 10° NNE visible
21 Jun ? 22:08:15 10° SSW 22:16:36 51° W 22:25:01 10° N visible
22 Jun ? 21:18:12 10° S 21:26:53 86° E 21:35:37 10° N visible
22 Jun ? 23:19:58 10° WSW 23:24:39 15° WNW 23:29:23 10° NW visible
23 Jun ? 20:29:25 10° SSE 20:37:30 45° E 20:45:35 10° NNE visible
23 Jun ? 22:26:49 10° SW 22:34:18 32° WNW 22:41:53 10° NNW visible
24 Jun ? 21:35:49 10° SSW 21:44:22 62° W 21:52:59 10° N visible
25 Jun ? 20:46:09 10° S 20:54:45 71° E 21:03:24 10° N visible
25 Jun ? 22:46:22 10° WSW 22:52:13 20° WNW 22:58:08 10° NNW visible
